Location: Foulognes
(49.1413°N, 0.8183°W)
Time: 17:52:18
(UTC+00:00)

CENTAUR R/B - Pass Details

Date: 21 October 2019
Orbit: 779 x 1409 km, 63.4° (Epoch: 19 November)

Event Time Altitude Azimuth Distance (km) Brightness Sun altitude
Rises 18:33:18 0° 181° (S) 3,423 5.4 -15.5°
Reaches altitude 10° 18:35:56 10° 170° (S) 2,563 4.6 -16.0°
Maximum altitude 18:40:59 29° 112° (ESE) 1,705 3.2 -16.8°
Enters shadow 18:42:41 26° 86° (E) 1,879 3.4 -17.1°
